FENGYUN 3H

Last updated on Sun Jun 21 2026 00:02:47 GMT+0000 (Coordinated Universal Time)

1 65815U 25219A 26171.42343481 .00000033 00000+0 36111-4 0 9991 2 65815 98.6768 112.1297 0001572 74.5092 285.6258 14.19920896 37843
UTC large
Height (km)
Speed (km/s)
/
Latitude / Longitude
Inclination (degrees)
Orbital Period (minutes)
Azimuth
Elevation
Range (km)
Doppler Factor

Next 0 passes for location: London (51.5072 / 0.1276)

No passes found over London.
FENGYUN 3H